Terminal Aerodrome Forecast
Issued by NWS Salt Lake City, UT

Home | Current Version | Previous Version | Text Only | Print | Product List | Glossary On
Versions: 1 2 3 4 5 6 7 8 9 10 11 12 13 14 15 16 17 18 19 20 21 22 23 24 25 26
000
FTUS45 KSLC 191745
TAFCDC
TAF
KCDC 191745Z 1918/2018 20011KT P6SM SCT090 BKN150
     FM200300 19007KT P6SM SCT120
     FM201200 20018G25KT P6SM SCT200=

USA.gov is the U.S. government's official web portal to all federal, state and local government web resources and services.